Weather History for KEEN - February, 2013

Change the Weather History Date:

Saturday, February 9, 2013

  Actual Average Record
Temperature  
Mean Temperature 16 °F -  
Max Temperature 21 °F 31 °F 53 °F (1961)
Min Temperature 12 °F 7 °F -30 °F (1934)
Degree Days  
Heating Degree Days 48    
Moisture  
Dew Point 7 °F    
Average Humidity 65    
Maximum Humidity 93    
Minimum Humidity 48    
Precipitation  
Precipitation 0.06 in - - ()
Sea Level Pressure  
Sea Level Pressure 29.95 in    
Wind  
Wind Speed 17 mph (North)    
Max Wind Speed 29 mph    
Max Gust Speed 37 mph    
Visibility 5 miles    
Events      
Averages and records for this station are not official NWS values.
T = Trace of Precipitation, MM = Missing Value Source: NWS Daily Summary

Daily Weather History Graph

Daily Weather History Graph

Search for Another Location

Airport or City:

Trip Planner

Search our weather history database for the weather conditions in past years. The results will help you decide how hot, cold, wet, or windy it might be!

Date:

Astronomy

Feb. 09, 2013 Rise Set
Actual Time 6:54 AM EST 5:12 PM EST
Civil Twilight 6:24 AM EST 5:42 PM EST
Nautical Twilight 5:51 AM EST 6:15 PM EST
Astronomical Twilight 5:18 AM EST 6:48 PM EST
Moon 6:03 AM EST (2/9) 4:53 PM EST (2/9)
Length of Visible Light 11h 17m
Length of Day
10h 18m
Waning Crescent, 0% of the Moon is Illuminated
Feb 9
Waning Crescent
Feb 10
New
Feb 17
First Quarter
Feb 25
Full
Mar 4
Last Quarter

Hourly Weather History & Observations

Time (EST) Temp. Windchill Dew Point Humidity Pressure Visibility Wind Dir Wind Speed Gust Speed Precip Events Conditions
12:15 AM 17.6 °F 1.7 °F 12.2 °F 79% 29.76 in 0.5 mi North 18.4 mph 25.3 mph N/A   Overcast
12:35 AM 17.6 °F 1.7 °F 14.0 °F 86% 29.77 in 0.2 mi North 18.4 mph 23.0 mph N/A   Overcast
12:55 AM 17.6 °F 4.3 °F 15.8 °F 93% 29.76 in 0.2 mi North 12.7 mph - 0.01 in   Overcast
1:15 AM 17.6 °F 2.7 °F 15.8 °F 93% 29.75 in 0.2 mi North 16.1 mph - 0.01 in   Overcast
1:35 AM 17.6 °F 5.0 °F 15.8 °F 93% 29.75 in 0.2 mi North 11.5 mph - 0.01 in   Overcast
1:55 AM 19.4 °F 7.2 °F 15.8 °F 86% 29.76 in 0.2 mi North 11.5 mph - 0.02 in   Overcast
2:15 AM 19.4 °F 4.5 °F 15.8 °F 86% 29.76 in 0.2 mi North 17.3 mph 20.7 mph N/A   Overcast
2:35 AM 19.4 °F 5.0 °F 15.8 °F 86% 29.76 in 0.2 mi North 16.1 mph - 0.01 in   Overcast
2:55 AM 19.4 °F 5.0 °F 15.8 °F 86% 29.76 in 0.5 mi North 16.1 mph 21.9 mph 0.01 in   Overcast
3:15 AM 17.6 °F 1.7 °F 14.0 °F 86% 29.76 in 0.5 mi North 18.4 mph 24.2 mph N/A   Overcast
3:35 AM 17.6 °F 2.2 °F 14.0 °F 86% 29.75 in 0.5 mi North 17.3 mph 27.6 mph N/A   Overcast
3:55 AM 17.6 °F 1.7 °F 14.0 °F 86% 29.75 in 0.8 mi North 18.4 mph 27.6 mph N/A   Overcast
4:15 AM 17.6 °F 2.7 °F 14.0 °F 86% 29.76 in 1.0 mi North 16.1 mph 26.5 mph N/A   Overcast
4:35 AM 17.6 °F 2.2 °F 12.2 °F 79% 29.76 in 1.2 mi North 17.3 mph 26.5 mph N/A   Overcast
4:55 AM 17.6 °F 3.2 °F 12.2 °F 79% 29.77 in 1.2 mi North 15.0 mph 25.3 mph N/A   Overcast
5:15 AM 17.6 °F 3.7 °F 12.2 °F 79% 29.77 in 1.2 mi North 13.8 mph 21.9 mph N/A   Overcast
5:35 AM 17.6 °F 2.2 °F 12.2 °F 79% 29.77 in 1.5 mi North 17.3 mph 26.5 mph N/A   Overcast
5:55 AM 17.6 °F 1.3 °F 12.2 °F 79% 29.78 in 1.8 mi North 19.6 mph 25.3 mph N/A   Overcast
6:15 AM 17.6 °F 0.5 °F 10.4 °F 73% 29.78 in 1.8 mi North 21.9 mph 29.9 mph N/A   Overcast
6:35 AM 17.6 °F 1.3 °F 10.4 °F 73% 29.79 in 2.0 mi North 19.6 mph 28.8 mph N/A   Overcast
6:55 AM 15.8 °F -1.1 °F 10.4 °F 79% 29.80 in 1.8 mi NNE 19.6 mph 25.3 mph N/A   Overcast
7:15 AM 15.8 °F -0.2 °F 10.4 °F 79% 29.82 in 1.5 mi NNE 17.3 mph 26.5 mph N/A   Overcast
7:35 AM 15.8 °F -3.4 °F 8.6 °F 73% 29.82 in 1.0 mi North 26.5 mph 35.7 mph N/A   Overcast
7:55 AM 15.8 °F -3.1 °F 8.6 °F 73% 29.83 in 1.0 mi North 25.3 mph 33.4 mph N/A   Overcast
8:15 AM 15.8 °F -2.7 °F 8.6 °F 73% 29.84 in 1.0 mi North 24.2 mph 31.1 mph N/A   Overcast
8:35 AM 15.8 °F -4.1 °F 8.6 °F 73% 29.85 in 1.0 mi North 28.8 mph 33.4 mph N/A   Overcast
8:55 AM 15.8 °F -1.5 °F 8.6 °F 73% 29.86 in 1.0 mi North 20.7 mph 32.2 mph N/A   Overcast
9:15 AM 15.8 °F -3.1 °F 8.6 °F 73% 29.87 in 1.0 mi North 25.3 mph 32.2 mph N/A   Overcast
9:35 AM 14.0 °F -4.7 °F 6.8 °F 73% 29.87 in 0.8 mi North 23.0 mph 31.1 mph N/A   Overcast
9:55 AM 14.0 °F -4.7 °F 6.8 °F 73% 29.88 in 0.5 mi North 23.0 mph 35.7 mph N/A   Overcast
10:15 AM 15.8 °F -0.6 °F 8.6 °F 73% 29.89 in 1.0 mi North 18.4 mph 29.9 mph N/A   Overcast
10:35 AM 15.8 °F -0.6 °F 6.8 °F 68% 29.90 in 1.2 mi North 18.4 mph 27.6 mph N/A   Overcast
10:55 AM 15.8 °F -1.9 °F 6.8 °F 68% 29.91 in 1.2 mi North 21.9 mph 33.4 mph N/A   Overcast
11:15 AM 15.8 °F -1.5 °F 6.8 °F 68% 29.92 in 1.5 mi North 20.7 mph 31.1 mph N/A   Overcast
11:35 AM 15.8 °F -0.6 °F 6.8 °F 68% 29.92 in 2.0 mi North 18.4 mph 31.1 mph N/A   Overcast
11:55 AM 17.6 °F 0.5 °F 6.8 °F 63% 29.92 in 5.0 mi North 21.9 mph 26.5 mph N/A   Partly Cloudy
12:15 PM 17.6 °F -0.3 °F 5.0 °F 58% 29.92 in 2.0 mi North 24.2 mph 31.1 mph N/A   Scattered Clouds
12:35 PM 19.4 °F 2.5 °F 6.8 °F 58% 29.92 in 3.0 mi North 23.0 mph 28.8 mph N/A   Clear
12:55 PM 19.4 °F 2.5 °F 6.8 °F 58% 29.93 in 4.0 mi North 23.0 mph 27.6 mph N/A   Clear
1:15 PM 19.4 °F 0.8 °F 6.8 °F 58% 29.93 in 1.5 mi North 28.8 mph 36.8 mph N/A   Clear
1:35 PM 19.4 °F 3.2 °F 6.8 °F 58% 29.94 in 5.0 mi North 20.7 mph 26.5 mph N/A   Clear
1:55 PM 21.2 °F 6.0 °F 6.8 °F 54% 29.95 in 1.0 mi North 19.6 mph 29.9 mph N/A   Clear
2:15 PM 21.2 °F 6.0 °F 6.8 °F 54% 29.96 in 4.0 mi North 19.6 mph 31.1 mph N/A   Clear
2:35 PM 21.2 °F 7.8 °F 6.8 °F 54% 29.97 in 5.0 mi North 15.0 mph 32.2 mph N/A   Mostly Cloudy
2:55 PM 21.2 °F 7.8 °F 5.0 °F 50% 29.98 in 7.0 mi NNW 15.0 mph 27.6 mph N/A   Partly Cloudy
3:15 PM 19.4 °F 6.0 °F 5.0 °F 54% 29.99 in 10.0 mi NNW 13.8 mph 21.9 mph N/A   Clear
3:35 PM 19.4 °F 9.5 °F 3.2 °F 49% 30.02 in 4.0 mi NNW 8.1 mph 21.9 mph N/A   Clear
3:55 PM 19.4 °F 3.6 °F 3.2 °F 49% 30.02 in 9.0 mi North 19.6 mph 26.5 mph N/A   Clear
4:15 PM 19.4 °F 5.5 °F 3.2 °F 49% 30.03 in 10.0 mi North 15.0 mph 23.0 mph N/A   Clear
4:35 PM 19.4 °F 5.0 °F 3.2 °F 49% 30.04 in 10.0 mi North 16.1 mph 26.5 mph N/A   Clear
4:55 PM 19.4 °F 6.6 °F 3.2 °F 49% 30.05 in 10.0 mi North 12.7 mph 21.9 mph N/A   Clear
5:15 PM 17.6 °F 3.2 °F 1.4 °F 49% 30.07 in 10.0 mi North 15.0 mph 20.7 mph N/A   Clear
5:35 PM 17.6 °F 5.7 °F 1.4 °F 49% 30.09 in 10.0 mi North 10.4 mph - 0.02 in   Clear
5:55 PM 17.6 °F 4.3 °F 1.4 °F 49% 30.10 in 10.0 mi NNW 12.7 mph 21.9 mph 0.02 in   Clear
6:15 PM 17.6 °F 3.7 °F 1.4 °F 49% 30.11 in 10.0 mi North 13.8 mph 19.6 mph N/A   Clear
6:35 PM 15.8 °F 2.1 °F -0.4 °F 49% 30.13 in 10.0 mi North 12.7 mph - N/A   Clear
6:55 PM 15.8 °F 2.7 °F -0.4 °F 49% 30.14 in 10.0 mi North 11.5 mph 20.7 mph N/A   Clear
7:15 PM 15.8 °F 0.3 °F -0.4 °F 49% 30.15 in 10.0 mi North 16.1 mph 20.7 mph N/A   Clear
7:35 PM 15.8 °F 0.9 °F -0.4 °F 49% 30.16 in 10.0 mi North 15.0 mph - N/A   Clear
7:55 PM 14.0 °F -1.4 °F -0.4 °F 53% 30.17 in 10.0 mi North 15.0 mph 18.4 mph N/A   Clear
8:35 PM 14.0 °F -0.2 °F -0.4 °F 53% 30.19 in 10.0 mi North 12.7 mph 18.4 mph N/A   Clear
8:55 PM 12.2 °F -3.1 °F -0.4 °F 57% 30.19 in 10.0 mi North 13.8 mph 19.6 mph N/A   Clear
9:15 PM 14.0 °F 1.2 °F -0.4 °F 53% 30.20 in 10.0 mi North 10.4 mph 18.4 mph N/A   Clear
9:35 PM 14.0 °F 1.2 °F -2.2 °F 49% 30.20 in 10.0 mi North 10.4 mph - N/A   Clear
9:55 PM 14.0 °F 2.9 °F -0.4 °F 53% 30.22 in 10.0 mi North 8.1 mph - N/A   Clear
10:15 PM 12.2 °F 0.7 °F -2.2 °F 53% 30.22 in 10.0 mi North 8.1 mph - N/A   Clear
10:35 PM 14.0 °F 3.9 °F -2.2 °F 49% 30.22 in 10.0 mi North 6.9 mph - N/A   Clear
10:55 PM 14.0 °F 3.9 °F -0.4 °F 53% 30.23 in 10.0 mi NNW 6.9 mph - N/A   Clear
11:15 PM 14.0 °F 2.9 °F -2.2 °F 49% 30.23 in 10.0 mi North 8.1 mph - N/A   Clear
11:35 PM 12.2 °F - -4.0 °F 48% 30.24 in 10.0 mi Calm Calm - N/A   Clear
11:55 PM 12.2 °F 4.3 °F -2.2 °F 53% 30.25 in 10.0 mi NNE 4.6 mph - N/A   Clear